| time (UTC) | temp F | wind direction | speed knots | gust knots | rain 1hr in | rain 24hr in | rain mn in | humidity % | barometer mb |
| 20260508170037 | 60 | 0 | 8.7 | 13.9 | 0.00 | 0.02 | 0.01 | 72 | 990.4 |
| 20260508163017 | 59 | 0 | 10.4 | 15.6 | 0.00 | 0.02 | 0.01 | 75 | 991.0 |
| 20260508160017 | 58 | 0 | 8.7 | 13.9 | 0.00 | 0.02 | 0.01 | 77 | 991.0 |
| 20260508153017 | 56 | 0 | 7.0 | 11.3 | 0.01 | 0.02 | 0.01 | 80 | 990.9 |
| 20260508150016 | 54 | 0 | 7.0 | 13.9 | 0.01 | 0.02 | 0.01 | 83 | 990.4 |
| 20260508143037 | 54 | 0 | 5.2 | 16.5 | 0.00 | 0.01 | 0.00 | 80 | 991.5 |
| 20260508140017 | 56 | 0.0 | 3.5 | 0.00 | 0.01 | 0.00 | 77 | 990.6 | |
| 20260508133037 | 55 | 0 | 1.7 | 5.2 | 0.00 | 0.01 | 0.00 | 77 | 991.0 |
| 20260508130017 | 54 | 0 | 1.7 | 3.5 | 0.00 | 0.01 | 0.00 | 81 | 991.0 |
| 20260508123017 | 52 | 0 | 3.5 | 7.0 | 0.00 | 0.01 | 0.00 | 80 | 990.8 |
| 20260508120017 | 52 | 0 | 2.6 | 4.3 | 0.00 | 0.01 | 0.00 | 79 | 990.8 |
| 20260508113037 | 52 | 0 | 2.6 | 3.5 | 0.00 | 0.01 | 0.00 | 77 | 990.5 |
| 20260508110017 | 52 | 0 | 2.6 | 4.3 | 0.00 | 0.01 | 0.00 | 77 | 990.5 |
| 20260508103017 | 51 | 45 | 1.7 | 3.5 | 0.00 | 0.01 | 0.00 | 79 | 990.6 |
| 20260508100017 | 50 | 45 | 1.7 | 3.5 | 0.00 | 0.01 | 0.00 | 82 | 990.3 |
| 20260508093017 | 50 | 0 | 0.9 | 3.5 | 0.00 | 0.01 | 0.00 | 80 | 990.2 |
| 20260508090017 | 51 | 0 | 0.9 | 2.6 | 0.00 | 0.01 | 0.00 | 78 | 990.2 |
| 20260508083017 | 52 | 0 | 0.9 | 3.5 | 0.00 | 0.01 | 0.00 | 77 | 990.4 |
| 20260508080017 | 52 | 0 | 5.2 | 10.4 | 0.00 | 0.01 | 0.00 | 75 | 990.6 |
| 20260508073018 | 56 | 0 | 6.1 | 12.2 | 0.00 | 0.01 | 0.00 | 70 | 990.3 |
| 20260508070017 | 56 | 0 | 5.2 | 8.7 | 0.00 | 0.01 | 0.00 | 71 | 990.7 |
| 20260508063017 | 56 | 0 | 5.2 | 8.7 | 0.00 | 0.01 | 0.00 | 72 | 991.1 |
| 20260508060017 | 55 | 0 | 4.3 | 7.8 | 0.00 | 0.01 | 0.00 | 73 | 991.4 |
| 20260508053017 | 54 | 0 | 4.3 | 7.0 | 0.00 | 0.01 | 0.00 | 74 | 991.4 |
| 20260508050017 | 54 | 0 | 4.3 | 7.8 | 0.00 | 0.01 | 0.01 | 73 | 991.5 |
| 20260508043017 | 54 | 0 | 4.3 | 6.1 | 0.00 | 0.01 | 0.01 | 73 | 991.7 |
| 20260508040037 | 54 | 0 | 4.3 | 6.1 | 0.00 | 0.01 | 0.01 | 74 | 991.8 |
| 20260508033017 | 54 | 0 | 4.3 | 6.1 | 0.00 | 0.01 | 0.01 | 74 | 991.6 |
| 20260508030017 | 55 | 0 | 4.3 | 5.2 | 0.00 | 0.01 | 0.01 | 72 | 991.5 |
| 20260508023037 | 55 | 0 | 4.3 | 6.1 | 0.00 | 0.01 | 0.01 | 71 | 991.4 |
| 20260508020017 | 56 | 0 | 3.5 | 5.2 | 0.00 | 0.01 | 0.01 | 68 | 991.1 |
| 20260508013017 | 57 | 0 | 3.5 | 6.1 | 0.00 | 0.01 | 0.01 | 67 | 990.9 |
| 20260508010017 | 57 | 0 | 2.6 | 4.3 | 0.01 | 0.01 | 0.01 | 68 | 990.8 |
| 20260508003017 | 60 | 0 | 1.7 | 6.1 | 0.01 | 0.01 | 0.01 | 64 | 990.7 |
| 20260508000017 | 62 | 0 | 0.9 | 3.5 | 0.00 | 0.00 | 0.00 | 56 | 991.0 |
| 20260507233037 | 62 | 0 | 2.6 | 4.3 | 0.00 | 0.00 | 0.00 | 57 | 990.8 |
| 20260507230017 | 63 | 0 | 1.7 | 3.5 | 0.00 | 0.00 | 0.00 | 52 | 991.0 |
| 20260507223017 | 62 | 0 | 9.6 | 20.0 | 0.00 | 0.00 | 0.00 | 58 | 991.3 |
| 20260507220017 | 66 | 0 | 4.3 | 11.3 | 0.00 | 0.00 | 0.00 | 47 | 991.1 |
| 20260507213017 | 63 | 0 | 3.5 | 10.4 | 0.00 | 0.00 | 0.00 | 57 | 991.2 |
| 20260507210037 | 58 | 0 | 13.9 | 37.4 | 0.00 | 0.00 | 0.00 | 65 | 991.6 |
| 20260507203017 | 64 | 0 | 9.6 | 23.5 | 0.00 | 0.00 | 0.00 | 44 | 991.6 |
| 20260507200017 | 66 | 0 | 6.1 | 16.5 | 0.00 | 0.00 | 0.00 | 43 | 991.9 |
| 20260507193017 | 66 | 0 | 7.0 | 16.5 | 0.00 | 0.00 | 0.00 | 43 | 992.4 |
| 20260507190017 | 65 | 0 | 7.0 | 19.1 | 0.00 | 0.00 | 0.00 | 45 | 992.7 |
| 20260507183017 | 63 | 0 | 5.2 | 13.9 | 0.00 | 0.00 | 0.00 | 47 | 993.0 |
| 20260507180017 | 63 | 0 | 6.1 | 14.8 | 0.00 | 0.00 | 0.00 | 48 | 993.4 |
| 20260507173018 | 62 | 0 | 8.7 | 19.1 | 0.00 | 0.00 | 0.00 | 50 | 993.9 |